Location: Krasnoyarskiy Pitomnik
(51.1333°N, 71.6167°E)
Time: 09:27:07
(UTC+00:00)

ATLAS 3B R/B - Pass Details

Date: 22 October 2021
Orbit: 989 x 1206 km, 63.8° (Epoch: 25 November)

Event Time Altitude Azimuth Distance (km) Brightness Sun altitude
Rises 13:51:59 0° 255° (WSW) 3,744 7.0 -17.2°
Reaches altitude 10° 13:54:42 10° 262° (W) 2,818 6.1 -17.6°
Maximum altitude 14:00:58 42° 333° (NNW) 1,477 3.7 -18.6°
Enters shadow 14:07:22 11° 42° (NE) 2,900 4.6 -19.6°
